Regional Weather Roundup
Issued by NWS Green Bay, WI

Home | Current Version | Previous Version | Text Only | Print | Product List | Glossary On
Versions: 1 2 3 4 5 6 7 8 9 10 11 12 13 14 15 16 17 18 19 20 21 22 23 24 25 26 27 28 29 30 31 32 33 34 35 36 37 38 39 40 41 42 43 44 45 46 47 48 49 50
340
ASUS43 KGRB 271211
RWRGRB

NORTH-CENTRAL AND NORTHEAST WISCONSIN REGIONAL WEATHER ROUNDUP
NATIONAL WEATHER SERVICE GREEN BAY WI
700 AM CDT THU APR 27 2017

WIZ005-009-010>012-018-019-271300-
NORTH CENTRAL WISCONSIN

CITY           SKY/WX    TMP DP  RH WIND       PRES   REMARKS
IRONWOOD       LGT SNOW  26  25  96 N7G17     29.48F FOG
MANITOWISH WTR LGT SNOW  27  27 100 N6        29.41F
ARBOR VITAE    LGT SNOW  31  29  92 N9G16     29.39F
EAGLE RIVER    LGT SNOW  29  28  97 N13G18    29.38F
LAND O LAKES   LGT SNOW  29  27  94 N9        29.41F
RHINELANDER    FRZ RAIN  31  29  92 N8G17     29.38F FOG
PHILLIPS       MIX PCPN  27  25  89 N9        29.42S
ANTIGO         MIX PCPN  32  32  99 N14       29.33F
TOMAHAWK       LGT SNOW  29  28  94 N6        29.39F
MERRILL        MIX PCPN  32  31  96 N7        29.39S
$$

WIZ013-073-271300-
NORTHEAST WISCONSIN

CITY           SKY/WX    TMP DP  RH WIND       PRES   REMARKS
IRON MOUNTAIN  LGT RAIN  34  30  85 NW13      29.33F
MARINETTE      RAIN      39  37  92 N10       29.31F
OCONTO         CLOUDY    38  36  94 N12G17    29.30F
$$

WIZ017-030-035>037-045-271300-
CENTRAL WISCONSIN

CITY           SKY/WX    TMP DP  RH WIND       PRES   REMARKS
MEDFORD        MIX PCPN  30  28  93 NW9       29.40R
WAUSAU         RAIN      33  31  92 NW8       29.35F FOG
MOSINEE        LGT RAIN  34  34 100 N10       29.37F
MARSHFIELD     FRZ RAIN  32  30  92 NW16      29.38F FOG
WISC RAPIDS    RAIN      35  34  96 N12       29.38F FOG
STEVENS POINT  RAIN      33  33 100 NW5       29.36F
WAUPACA        RAIN      40  38  93 NW10      29.33F
SHAWANO        RAIN      40  37  91 NW5       29.33S
CLINTONVILLE   RAIN      37  37 100 NW10      29.32S
WAUTOMA        LGT RAIN  37  37 100 NW10      29.35S
$$

WIZ038-039-048-051-271300-
FOX VALLEY

CITY           SKY/WX    TMP DP  RH WIND       PRES   REMARKS
NWS GREEN BAY  HVY RAIN  42  41  96 N8        29.31R FOG
APPLETON       LGT RAIN  43  43 100 NW12      29.30S FOG
OSHKOSH        RAIN      42  40  92 NW10      29.30F FOG
FOND DU LAC    RAIN      43  40  89 NW10      29.30F
$$

WIZ022-050-052-271300-
EAST CENTRAL WISCONSIN

CITY           SKY/WX    TMP DP  RH WIND       PRES   REMARKS
EPHRAIM        LGT RAIN  37  37 100 N16G23    29.29F
WASHINGTON ISL LGT RAIN  36  35  98 N10       29.31S
STURGEON BAY   LGT RAIN  41  40  96 N15       29.29F
MANITOWOC      CLOUDY    46  45  96 NW8       29.28S
SHEBOYGAN      LGT RAIN  48  46  93 NW8       29.28S
$$

LMZ563-521-522-541>543-271300-
LAKESHORE

STATION/POSITION TIME  TEMP    WIND        PRES    VSBY  WAVE
                       AIR SEA DIR/SP/G                  HT/PER
                 (UTC) (F)     (DEG/KT/KT) (MB)    (MI)  (FT/S)
SHEBOYGAN LKSHOR 1200   49     300/  9/ 13  991.0F
KEWAUNEE LKSHORE 1148   44      20/  5/  8  991.6F
N MID LAKE BUOY  1150   38 37   10/ 14/ 16  993.2R         2/ 3
CHAMBERS ISLAND  1140   40     340/ 14/ 16  992.6F
MENOMINEE LKSHOR 1148   40     330/ 13/ 14  991.9F
$$




USA.gov is the U.S. government's official web portal to all federal, state and local government web resources and services.